Location: Morlupo
(42.1333°N, 12.5000°E)
Time: 16:44:57
(UTC+00:00)

Okean 1 Rocket - Pass Details

Date: 18 September 2020
Orbit: 606 x 635 km, 82.5° (Epoch: 20 October)

Event Time Altitude Azimuth Distance (km) Brightness Sun altitude
Exits shadow 19:51:19 46° 335° (NNW) 861 4.0 -28.5°
Drops below altitude 10° 19:54:41 10° 1° (N) 2,030 6.0 -29.1°
Sets 19:56:58 0° 5° (N) 2,944 6.9 -29.4°
